Home   Weather   Anderson   Past weeks

Flag for USA Past Weather in Anderson, South Carolina, USA — Yesterday and Last 2 Weeks

Now
83 °F

Sunny.


Feels Like: 81 °F
Forecast: 57 / 83 °F
Wind: 12 mph from Southwest

Location: Anderson County Airport

Current Time: Sep 29, 2016 at 2:44:32 PM

Latest Report: Sep 29, 2016 at 1:56 PM


Visibility: 10 mi

Pressure: 29.92 "Hg

Humidity: 33%

Dew Point: 51 °F

Location of AndersonLocation

Past Weather in Anderson — Graph

°F

Anderson Temperature Yesterday

Maximum temperature yesterday: 88 °F (at 4:56 PM)
Minimum temperature yesterday: 66 °F (at 11:56 PM)
Average temperature yesterday: 74 °F

High & Low Weather Summary for the Past Weeks

 TemperatureHumidityPressure
High94 °F (Sep 24, 2:56 PM)100% (Sep 28, 5:56 AM)30.20 "Hg (Sep 28, 5:56 AM)
Low58 °F (Sep 29, 4:56 AM)27% (Sep 24, 2:56 PM)29.83 "Hg (Sep 27, 3:56 PM)
Average77 °F67%30.02 "Hg
* Reported Sep 14 12:56 PM — Sep 29 12:56 PM, Anderson, Weather by CustomWeather, © 2016

Note: Actual official high and low records may vary slightly from our data, if they occured in-between our weather recording intervals... More about our weather records

Advertising

Anderson Weather History for the Previous 24 Hours

Scroll right to see more
 ConditionsComfort  
Time TempWeatherWind HumidityBarometerVisibility
12:56 PM
Thu, Sep 29
81 °FSunny.12 mph37%29.94 "Hg10 mi
11:56 AM77 °FSunny.6 mph45%29.95 "Hg10 mi
10:56 AM74 °FSunny.3 mph52%29.95 "Hg10 mi
9:56 AM69 °FPartly sunny.No wind70%29.93 "Hg10 mi
8:56 AM64 °FSunny.No wind84%29.93 "Hg10 mi
7:56 AM59 °FSunny.3 mph90%29.91 "Hg10 mi
6:56 AM58 °FClear.No wind93%29.90 "Hg10 mi
5:56 AM58 °FClear.No wind93%29.88 "Hg10 mi
4:56 AM58 °FClear.No wind93%29.87 "Hg10 mi
3:56 AM60 °FClear.No wind93%29.87 "Hg10 mi
2:56 AM60 °FClear.No wind90%29.88 "Hg10 mi
1:56 AM62 °FClear.No wind90%29.88 "Hg10 mi
12:56 AM63 °FClear.3 mph87%29.89 "Hg10 mi
11:56 PM
Wed, Sep 28
66 °FClear.No wind75%29.89 "Hg10 mi
10:56 PM68 °FClear.3 mph70%29.89 "Hg10 mi
9:56 PM69 °FClear.No wind68%29.89 "Hg10 mi
8:56 PM73 °FClear.No wind55%29.89 "Hg10 mi
7:56 PM78 °FClear.7 mph42%29.87 "Hg10 mi
6:56 PM83 °FSunny.10 mph37%29.86 "Hg10 mi
5:56 PM87 °FSunny.10 mph36%29.84 "Hg10 mi
4:56 PM88 °FSunny.15 mph36%29.84 "Hg10 mi
3:56 PM87 °FPassing clouds.17 mph42%29.85 "Hg10 mi
2:56 PM86 °FScattered clouds.15 mph48%29.87 "Hg10 mi
Weather by CustomWeather, © 2016

See weather overviewHow to use our weather pages